When you browse on this site, cookies collect data to enhance your experience and personalize the content and advertising you see.
Visit our Privacy Policy to learn more. By continuing to use the site, you agree to this use of cookies and data.
  • In Austria
  • List of Countries
  • For 7 days
  • Water Temperature
  • Satellite Maps
  • Weather Map
  • News
  • Weather Widgets
  • user-avatar
    Login

    Hourly Weather Trumbull

    Today, 20 April, Saturday

    Time Temperature Precipitation Wind Pressure Humidity
    00:00 +18°C° 1.2 mm 8 mps 750 mmHg 91%
    01:00 +17°C° 0 mm 8 mps 749 mmHg 92%
    02:00 +17°C° 1.5 mm 7 mps 749 mmHg 93%
    03:00 +17°C° 1.5 mm 7 mps 749 mmHg 93%
    04:00 +17°C° 1.5 mm 6 mps 750 mmHg 94%
    05:00 +17°C° 3.6 mm 6 mps 750 mmHg 93%
    06:00 +17°C° 3.6 mm 6 mps 750 mmHg 93%
    07:00 +17°C° 0 mm 5 mps 750 mmHg 95%
    08:00 +17°C° 3.7 mm 6 mps 750 mmHg 93%
    09:00 +17°C° 3.7 mm 7 mps 750 mmHg 92%
    10:00 +18°C° 3.7 mm 7 mps 750 mmHg 90%
    11:00 +18°C° 1.3 mm 8 mps 750 mmHg 90%
    12:00 +18°C° 1.3 mm 8 mps 750 mmHg 90%
    13:00 +18°C° 1.3 mm 8 mps 751 mmHg 91%
    14:00 +18°C° 0.1 mm 8 mps 751 mmHg 91%
    15:00 +17°C° 0.1 mm 7 mps 751 mmHg 90%
    16:00 +17°C° 0.1 mm 7 mps 751 mmHg 90%
    17:00 +16°C° 0 mm 6 mps 751 mmHg 89%
    18:00 +15°C° 0 mm 5 mps 752 mmHg 88%
    19:00 +15°C° 0 mm 5 mps 752 mmHg 87%
    20:00 +14°C° 0 mm 4 mps 752 mmHg 84%
    21:00 +14°C° 0 mm 4 mps 753 mmHg 81%
    22:00 +13°C° 0 mm 3 mps 753 mmHg 77%
    23:00 +13°C° 0 mm 3 mps 753 mmHg 79%

    Tomorrow, 21 April, Sunday

    Time Temperature Precipitation Wind Pressure Humidity
    00:00 +14°C° 0 mm 2 mps 754 mmHg 80%
    01:00 +13°C° 0 mm 2 mps 754 mmHg 81%
    02:00 +13°C° 0 mm 2 mps 754 mmHg 83%
    03:00 +13°C° 0 mm 2 mps 754 mmHg 85%
    04:00 +12°C° 0 mm 2 mps 754 mmHg 87%
    05:00 +13°C° 0 mm 2 mps 754 mmHg 86%
    06:00 +13°C° 0 mm 2 mps 755 mmHg 85%
    07:00 +14°C° 0 mm 2 mps 755 mmHg 84%
    08:00 +14°C° 0 mm 2 mps 755 mmHg 79%
    09:00 +14°C° 0 mm 3 mps 756 mmHg 74%
    10:00 +16°C° 0 mm 3 mps 756 mmHg 69%
    11:00 +16°C° 0 mm 3 mps 756 mmHg 66%
    12:00 +17°C° 0 mm 4 mps 756 mmHg 62%
    13:00 +17°C° 0 mm 4 mps 756 mmHg 59%
    14:00 +17°C° 0 mm 4 mps 756 mmHg 58%
    15:00 +17°C° 0 mm 4 mps 756 mmHg 57%
    16:00 +15°C° 0 mm 4 mps 756 mmHg 56%
    17:00 +14°C° 0 mm 3 mps 757 mmHg 61%
    18:00 +14°C° 0 mm 2 mps 757 mmHg 66%
    19:00 +13°C° 0 mm 2 mps 757 mmHg 71%
    20:00 +12°C° 0 mm 1 mps 758 mmHg 74%
    21:00 +12°C° 0 mm 1 mps 758 mmHg 77%
    22:00 +10°C° 0 mm 0 mps 758 mmHg 79%
    23:00 +10°C° 0 mm 0 mps 758 mmHg 81%

    Day after tomorrow, 22 April, Monday

    Time Temperature Precipitation Wind Pressure Humidity
    00:00 +9°C° 0 mm 0 mps 758 mmHg 83%
    01:00 +9°C° 0 mm 0 mps 758 mmHg 84%
    02:00 +9°C° 0 mm 0 mps 758 mmHg 84%
    03:00 +10°C° 0 mm 1 mps 758 mmHg 84%
    04:00 +10°C° 0 mm 1 mps 757 mmHg 83%
    05:00 +11°C° 0 mm 1 mps 758 mmHg 80%
    06:00 +12°C° 0 mm 1 mps 758 mmHg 76%
    07:00 +12°C° 0 mm 2 mps 758 mmHg 73%
    08:00 +14°C° 0 mm 2 mps 758 mmHg 67%
    09:00 +16°C° 0 mm 2 mps 757 mmHg 61%
    10:00 +18°C° 0 mm 2 mps 757 mmHg 55%
    11:00 +19°C° 0 mm 2 mps 757 mmHg 53%
    12:00 +20°C° 0 mm 2 mps 757 mmHg 51%
    13:00 +21°C° 0 mm 2 mps 757 mmHg 49%
    14:00 +21°C° 0.1 mm 2 mps 756 mmHg 52%
    15:00 +21°C° 0.1 mm 1 mps 756 mmHg 56%
    16:00 +21°C° 0.1 mm 1 mps 756 mmHg 59%
    17:00 +19°C° 0 mm 1 mps 756 mmHg 63%
    18:00 +18°C° 0 mm 1 mps 756 mmHg 68%
    19:00 +16°C° 0 mm 1 mps 756 mmHg 73%
    20:00 +15°C° 0 mm 1 mps 757 mmHg 75%
    21:00 +15°C° 0 mm 1 mps 757 mmHg 78%
    22:00 +14°C° 0 mm 1 mps 757 mmHg 81%
    23:00 +14°C° 0 mm 1 mps 757 mmHg 84%

    23 April, Tuesday

    Time Temperature Precipitation Wind Pressure Humidity
    00:00 +13°C° 0 mm 1 mps 757 mmHg 86%
    01:00 +13°C° 0 mm 2 mps 757 mmHg 89%
    02:00 +13°C° 0 mm 2 mps 757 mmHg 90%
    03:00 +12°C° 0 mm 1 mps 757 mmHg 92%
    04:00 +12°C° 0 mm 1 mps 757 mmHg 93%
    05:00 +13°C° 0 mm 1 mps 757 mmHg 89%
    06:00 +14°C° 0 mm 1 mps 757 mmHg 86%
    07:00 +14°C° 0 mm 1 mps 758 mmHg 83%
    08:00 +16°C° 0 mm 1 mps 757 mmHg 75%
    09:00 +20°C° 0 mm 1 mps 757 mmHg 67%
    10:00 +22°C° 0 mm 1 mps 757 mmHg 60%
    11:00 +23°C° 0 mm 1 mps 757 mmHg 56%
    12:00 +23°C° 0 mm 2 mps 756 mmHg 53%
    13:00 +24°C° 0 mm 2 mps 756 mmHg 49%
    14:00 +24°C° 0 mm 3 mps 755 mmHg 49%
    15:00 +24°C° 0 mm 3 mps 755 mmHg 49%
    16:00 +23°C° 0 mm 4 mps 754 mmHg 48%
    17:00 +21°C° 0 mm 4 mps 754 mmHg 56%
    18:00 +19°C° 0 mm 4 mps 754 mmHg 63%
    19:00 +15°C° 0 mm 4 mps 753 mmHg 71%
    20:00 +15°C° 0 mm 4 mps 753 mmHg 74%
    21:00 +14°C° 0 mm 4 mps 753 mmHg 77%
    22:00 +14°C° 0 mm 4 mps 753 mmHg 80%
    23:00 +14°C° 0.1 mm 4 mps 752 mmHg 79%

    24 April, Wednesday

    Time Temperature Precipitation Wind Pressure Humidity
    00:00 +15°C° 0.1 mm 4 mps 751 mmHg 77%
    01:00 +17°C° 0.1 mm 4 mps 751 mmHg 76%
    02:00 +17°C° 0.7 mm 4 mps 750 mmHg 78%
    03:00 +17°C° 0.7 mm 4 mps 750 mmHg 80%
    04:00 +17°C° 0.7 mm 4 mps 749 mmHg 82%
    05:00 +17°C° 0.2 mm 4 mps 749 mmHg 82%
    06:00 +18°C° 0.2 mm 4 mps 750 mmHg 83%
    07:00 +18°C° 0.2 mm 4 mps 750 mmHg 83%
    08:00 +17°C° 0 mm 5 mps 750 mmHg 74%
    09:00 +19°C° 0 mm 5 mps 750 mmHg 65%
    10:00 +19°C° 0 mm 6 mps 750 mmHg 57%
    11:00 +20°C° 0 mm 6 mps 750 mmHg 51%
    12:00 +20°C° 0 mm 6 mps 750 mmHg 46%
    13:00 +20°C° 0 mm 6 mps 750 mmHg 41%
    14:00 +20°C° 0 mm 5 mps 750 mmHg 41%
    15:00 +20°C° 0 mm 5 mps 750 mmHg 41%
    16:00 +20°C° 0 mm 5 mps 750 mmHg 40%
    17:00 +17°C° 0 mm 5 mps 750 mmHg 46%
    18:00 +17°C° 0 mm 4 mps 751 mmHg 51%
    19:00 +14°C° 0 mm 4 mps 752 mmHg 56%
    20:00 +13°C° 0 mm 4 mps 752 mmHg 60%
    21:00 +12°C° 0 mm 3 mps 752 mmHg 64%
    22:00 +11°C° 0 mm 3 mps 753 mmHg 67%
    23:00 +10°C° 0 mm 3 mps 753 mmHg 69%

    25 April, Thursday

    Time Temperature Precipitation Wind Pressure Humidity
    00:00 +9°C° 0 mm 3 mps 753 mmHg 71%
    01:00 +9°C° 0 mm 2 mps 753 mmHg 72%
    02:00 +8°C° 0 mm 2 mps 753 mmHg 74%
    03:00 +8°C° 0 mm 2 mps 753 mmHg 75%
    04:00 +7°C° 0 mm 2 mps 754 mmHg 76%
    05:00 +8°C° 0 mm 2 mps 754 mmHg 72%
    06:00 +8°C° 0 mm 2 mps 754 mmHg 67%
    07:00 +9°C° 0 mm 2 mps 755 mmHg 62%
    08:00 +12°C° 0 mm 2 mps 755 mmHg 57%
    09:00 +12°C° 0 mm 3 mps 755 mmHg 51%
    10:00 +14°C° 0 mm 3 mps 754 mmHg 45%
    11:00 +16°C° 0 mm 3 mps 754 mmHg 42%
    12:00 +18°C° 0 mm 2 mps 754 mmHg 38%
    13:00 +19°C° 0 mm 2 mps 753 mmHg 35%
    14:00 +19°C° 0 mm 2 mps 753 mmHg 34%
    15:00 +20°C° 0 mm 2 mps 753 mmHg 34%
    16:00 +20°C° 0 mm 2 mps 752 mmHg 34%
    17:00 +18°C° 0 mm 2 mps 753 mmHg 38%
    18:00 +17°C° 0 mm 2 mps 753 mmHg 43%
    19:00 +15°C° 0 mm 2 mps 753 mmHg 47%
    20:00 +14°C° 0 mm 2 mps 753 mmHg 52%
    21:00 +13°C° 0 mm 2 mps 753 mmHg 57%
    22:00 +12°C° 0 mm 1 mps 754 mmHg 62%
    23:00 +11°C° 0 mm 1 mps 753 mmHg 65%
    Show more